STARLINK-32687 (63565 NORAD) Tracking and Keplerian Element Data

This shows tracking and keplerian element data for the satellite.

Feedback or suggestion? Click here.




ElementValue
Catalog63565
NameSTARLINK-32687
Epoch Orbit3975
Epoch Day354.03260249
Epoch Year2025
RAAN0.5736
Inclination43.0008
Eccentricity0.0001244
Argument of Perigee168.7936
Mean Anonmoly191.2943
Mean Motion15.27595439
Decay Rate0.00023131
L11 63565U 25075T 25354.03260249 .00023131 00000+0 84707-3 0 9997
L22 63565 43.0008 0.5736 0001244 168.7936 191.2943 15.27595439 39757



Live tracking and technical data element details for STARLINK-32687 (NORAD 63565). STARLINK-32687 can be tracked NOW for your location showing map with azimuth and elevation plus other details from your city location.







IsCatalogInMostPopularTable: catalog: 63565, numindb: 7
Update: records affected: 1



GetName: 63565 STARLINK-32687

Hit Count: updated at: Mon, 20 Apr 2026 10:33:21 GMT